Location: S�tio Afonso Gruber
(26.1760°S, 49.5250°W)
Time: 22:31:26
(UTC+00:00)

BREEZE-M DEB (TANK) - Pass Details

Date: 07 June 2020
Orbit: 301 x 17193 km, 49.5° (Epoch: 10 July)

Event Time Altitude Azimuth Distance (km) Brightness Sun altitude
Exits shadow 09:33:49 - 228° (SW) 2,329 5.4 -6.4°
Reaches altitude 10° 09:34:54 10° 229° (SW) 1,765 4.8 -6.1°
Maximum altitude 09:38:01 65° 311° (NW) 372 1.9 -5.5°
Drops below altitude 10° 09:40:05 10° 36° (NE) 1,173 5.6 -5.1°
Sets 09:41:49 0° 39° (NE) 2,096 7.1 -4.7°
